Location: *
(46.1006°N, 1.8394°E)
Time: 23:54:02
(UTC+00:00)

DELTA 2 R/B (1) - Pass Details

Date: 20 September 2019
Orbit: 791 x 802 km, 39.6° (Epoch: 14 October)

Event Time Altitude Azimuth Distance (km) Brightness Sun altitude
Rises 20:05:07 0° 248° (WSW) 3,300 7.4 -22.5°
Reaches altitude 10° 20:07:43 10° 241° (WSW) 2,370 6.4 -22.9°
Enters shadow 20:12:45 41° 178° (S) 1,144 4.1 -23.7°
